Showing default

LEMU-NGE, 60532

Orbit data source: Space-Track

LEMU-NGE, 60532 is a Chilean payload satellite in SSO that was launched on Fri, 16 Aug 2024 UTC via an FALCON 9 launch vehicle from the Air Force Western Test Range (AFWTR). Payload-class satellites include a variety of spacecraft equipped with specific instruments for various scientific and technological missions. These include communications satellites like Starlink; space stations such as the ISS; scientific satellites like the Hubble; Earth observation satellites from companies like Planet Labs, Umbra, and HawkEye 360; GPS; miniature CubeSats for education and research; and military/defense satellites.

Loading next visibility...
Identifier
60532, 2024-149BS
Orbit
SSO
Last TLE update
11 hours ago
Origin
Manufacturer
NanoAvionics
Mission
Operational Commercial Imaging
Bus & Motor
CUBESAT 6U, Unknown motor
Mass
~10 kg wet, ~10 kg dry
Launch date (UTC)
2024-08-16 (11 months ago)
Launch vehicle
FALCON 9
Launch site
Air Force Western Test Range (AFWTR)
Object type
Payload
Rocket body
Debris
Shape & HBR
Box + 2 Pan, 0.1 m
Radar Cross Section
0.080 m², Small (<0.1 m²)

Expand to show TLE details & history

TLE from 11 hours ago
0 LEMU-NGE
1 60532U 24149BS  25199.21747828  .00002260  00000-0  21096-3 0  9992
2 60532  97.7175 275.2065 0002487  84.1238 276.0267 14.95170849 50056
Epoch: 2025-07-18T05:13Z
TLE epoch observation values (Epoch: 2025-07-18T05:13:10.123Z)
Latitude
0.00006°
Longitude
-99.35779°
Altitude
584.709 km
Speed
7.568 km/s
True Right ascension
18h 20m 49s
True Declination
0° 00' 00"
Sunlit
Object was in full shadow at epoch
Visualization orbit readout
Latitude
-23.09496°
Longitude
-95.60618°
Altitude
591.058 km
Speed
7.563 km/s
Apparent Right ascension
17h 57m 51s
Apparent Declination
-31° 25' 50"
Sunlit
Object is in full shadow
Visualization observer readout
Local Sidereal Time
05:07:59
Azimuth
306.163° NW
Elevation
-76.81°
Doppler factor
1
Orbital elements
Apogee altitude
580.585 km
Perigee altitude
577.125 km
Semi-major axis
6,956.992 km
Eccentricity
0.00025
Inclination
97.7175°
RAAN
275.2065°
Arg. of periapsis
84.1238°
True anomaly
275.99836°
Mean anomaly
276.0267°
Eccentric anomaly
276.01253°
Mean motion
3.74034 °/min
Orbital period
96.25 mins
BSTAR
0.00021096
Loading maneuver chart data...
Loading SW <> Apogee altitude chart data...
Loading historical data...
Loading historical data...
Loading historical data...
Loading historical data...
Loading historical data...
Loading historical data...
Loading historical data...
|